www.pogodaiklimat.ru

Погода и климат >> Архив погоды >> Россия >> Ставропольский край >> Светлоград


ПОГОДА в Светлограде

  • Прогноз погоды в Светлограде
  • Монитор погоды в Светлограде

АРХИВ ПОГОДЫ в Светлограде

Время (UTC), дата Ветер
(напр.,м/с)
 
Видим.   Явления Облачность Т
(С)
Тd
(С)
f
(%)
Тe
(С)
Тes
(С)
Комфортность P
(гПа)
Po
(гПа)
Тmin
(С)
Tmax
(С)
R
(мм)
R24
(мм)
S
(см)
00 14.06 штиль 0 20 км 4/4 600 м
[Sc]
+19.5 +17.5 88 +22 +22 комфорт 1014.0 997.6
03 14.06 В 2 20 км 6/4 600 м
[Sc Ci fib]
+20.6 +11.9 57 +23 +24 комфорт 1014.4 998.0 +19.4
06 14.06 СВ 2 20 км 3/0
[Ci fib]
+24.9 +11.5 43 +26 +37 жарко 1015.1 998.9
09 14.06 В 2 20 км 1/0
[Ci fib]
+29.4 +11.7 34 +30 +49 жарко 1015.1 999.3
12 14.06 В 2 20 км ясно +32.0 +11.8 29 +32 +45 жарко 1014.1 998.4
15 14.06 В 2 20 км 3/0
[Ci fib]
+31.4 +9.3 25 +31 +33 жарко 1013.8 998.0 +32.7
18 14.06 штиль 0 20 км ясно +25.9 +11.1 40 +27 +27 жарко 1014.5 998.4
21 14.06 штиль 0 20 км 3/0
[Ci fib]
+20.7 +14.8 69 +23 +23 комфорт 1014.7 998.3
00 15.06 штиль 0 20 км ясно +19.1 +15.8 81 +20 +20 1014.4 998.0
03 15.06 штиль 0 20 км ясно +19.6 +16.4 82 +22 +24 комфорт 1014.5 998.1 +19.0
06 15.06 В 2 20 км 10/0
[Ci fib]
+25.7 +13.2 46 +28 +37 жарко 1014.5 998.4
09 15.06 В 2 20 км 10/0
[Ci fib]
+30.5 +8.8 26 +30 +45 жарко 1012.9 997.1
12 15.06 В 2 20 км 10/0
[Ci fib]
+31.8 +8.5 24 +31 +41 жарко 1011.3 995.5
15 15.06 В 2 20 км 4/0
[Ci fib]
+32.5 +7.6 21 +31 +33 жарко 1010.2 994.5 +33.8
18 15.06 штиль 0 20 км 3/0
[Ci fib]
+24.9 +11.1 42 +26 +26 жарко 1010.8 994.7
21 15.06 В 2 20 км 3/0
[Ci fib]
+23.0 +10.5 45 +25 +25 комфорт 1010.8 994.6
00 16.06 штиль 0 20 км 10/3 600 м
[Sc Ci fib]
+21.8 +11.7 53 +24 +24 комфорт 1010.7 994.5
03 16.06 штиль 0 20 км 10/0
[Ci fib]
+19.2 +13.8 71 +20 +22 1010.7 994.3 +19.0
06 16.06 штиль 0 20 км 9/6 1000 м
[Sc Ci fib]
+25.4 +14.1 50 +28 +33 жарко 1010.1 994.1
09 16.06 В 2 20 км 1/0
[Ci fib]
+32.3 +6.1 19 +30 +49 жарко 1009.0 993.2
12 16.06 В 2 20 км ясно +34.5 +3.6 14 +32 +44 жарко 1007.7 992.1
15 16.06 В 2 20 км 4/0
[Ci fib]
+33.9 +10.0 23 +33 +35 жарко 1007.3 991.7 +34.9
18 16.06 ЮЗ 2 20 км 6/3 600 м
[Sc Ci fib]
+27.4 +8.8 31 +27 +27 жарко 1007.1 991.3
21 16.06 штиль 0 20 км 3/0
[Ci fib]
+23.2 +15.9 64 +28 +28 душно 1006.7 990.7
00 17.06 штиль 0 20 км ясно +20.5 +15.5 73 +23 +23 комфорт 1007.3 991.1
03 17.06 В 2 20 км 4/4 600 м
[Sc Ci fib]
+20.5 +13.1 62 +23 +24 комфорт 1008.2 992.0 +20.0
06 17.06 штиль 0 20 км ясно +25.8 +14.7 50 +28 +44 жарко 1010.7 994.7
09 17.06 СЗ 2 20 км ясно +30.8 +13.3 34 +32 +51 опасность
солнечного
удара
1010.4 994.6
12 17.06 В 2 20 км 6/6 1000 м
[]
+33.2 +11.4 26 +33 +38 жарко 1008.6 993.0
15 17.06 С 2 20 км 6/3 1000 м
[Cu med, cong Ci fib]
+32.8 +10.5 25 +32 +33 жарко 1008.4 992.5 +34.4
18 17.06 штиль 0 20 км 6/3 1000 м
[Sc Ci fib]
+26.8 +12.5 41 +28 +28 жарко 1010.2 994.2
21 17.06 штиль 0 20 км ясно +23.1 +12.2 50 +26 +26 жарко 1011.5 995.3
00 18.06 штиль 0 20 км ясно +19.5 +13.5 68 +21 +21 комфорт 1011.7 995.3
03 18.06 штиль 0 20 км ясно +19.1 +13.1 68 +20 +22 1012.2 995.8 +19.0
06 18.06 штиль 0 20 км ясно +28.2 +14.9 44 +31 +46 душно 1012.2 996.3
09 18.06 СВ 2 20 км 4/4 1000 м
[Cu hum]
+32.2 +11.9 29 +32 +44 жарко 1011.1 995.4
12 18.06 СВ 1 20 км 3/3 1000 м
[Cu hum]
+33.8 +4.5 16
15 18.06 С 2 20 км 3/3 1000 м
[Cu hum]
+33.3 +6.3 19 +31 +33 жарко 1008.5 992.8 +34.4
18 18.06 Ю 1 20 км 3/3 1000 м
[Cu hum]
+24.7 +9.7 39 +26 +26 жарко 1009.8 993.7
21 18.06 Ю 1 20 км ясно +21.3 +9.4 47 +23 +23 комфорт 1010.2 993.9
00 19.06 штиль 0 20 км ясно +17.8 +9.9 60 +18 +18 1010.3 993.8
03 19.06 штиль 0 20 км 3/3 1000 м
[Cu hum]
+22.1 +10.1 46 +24 +25 комфорт 1010.4 994.1 +16.2
06 19.06 С 2 20 км ясно +29.7 +10.5 30 +30 +41 жарко 1009.5 993.7
09 19.06 С 2 20 км 8/8 1000 м
[Cu med, cong]
+34.7 +7.2 18 +33 +36 жарко 1008.8 993.3
12 19.06 З 1 20 км 8/8 600 м
[Cu med, cong]
+36.8 +5.3 14 +34 +37 очень
жарко
1007.5 992.0
15 19.06 СВ 2 20 км 4/4 600 м
[Cu med, cong]
+35.2 +4.1 14 +32 +34 жарко 1007.0 991.5 +36.8
18 19.06 С 2 20 км ясно +29.4 +4.6 21 +28 +28 жарко 1008.5 992.6
21 19.06 СВ 2 20 км 8/8 1000 м
[Cu hum]
+26.3 +5.2 26 +26 +26 жарко 1009.0 992.9
00 20.06 штиль 0 20 км 3/3 1000 м
[Cu hum]
+23.5 +5.5 31 +23 +23 комфорт 1008.7 992.5
03 20.06 СВ 1 20 км 1/1 600 м
[Cu hum]
+24.0 +8.2 36 +24 +26 комфорт 1009.3 993.2 +22.6
06 20.06 СВ 2 20 км 4/4 1000 м
[Cu hum]
+31.3 +8.5 24 +30 +37 жарко 1009.1 993.4
09 20.06 СВ 4 20 км 6/3 1000 м
[Cu med, cong Ci fib]
+35.4 +6.5 17 +33 +41 жарко 1007.8 992.3
12 20.06 В 3 20 км 10/8 600 м
[Cu med, cong Ci fib]
+36.2 +5.5 15 +34 +35 очень
жарко
1006.6 991.1
15 20.06 СВ 4 20 км 10/9 600 м
[Sc diur, vesp Ci fib]
+34.2 +4.9 16 +32 +32 жарко 1006.6 991.0 +37.3
18 20.06 СВ 3 20 км 10/8 600 м
[Sc diur, vesp Ci fib]
+30.2 +7.0 23 +29 +29 жарко 1008.0 992.2
21 20.06 СВ 1 20 км 6/4 600 м
[Sc Ci fib]
+27.1 +8.6 31 +27 +27 жарко 1008.3 992.4

 

Местоположение метеостанции Светлоград (Ставропольский край, Россия): широта 45.35 долгота 42.85 высота над уровнем моря 141 м.

В архиве по умолчанию представлена погода в Светлограде за последнюю неделю. Архивные данные за месяц целиком и за предыдущие месяцы, начиная с января 2011 года, Вы можете получить, выбрав интересующий диапазон дат из раскрывающегося списка и нажав кнопку "Ввод!".


*Определитесь, кто Вы:
робот инопланетянин человек

Внимание! Время в таблицах - всемирное. Для получения местного времени необходимо прибавить поправку, которая равна 3 ч.

Смотрите также архив погоды в соседних городах и на ближайших метеорологических станциях:

Погода в Благодарном (Ставропольский край, Россия) (55 км)
Погода в Ставрополе (Ставропольский край, Россия) (66 км)
Погода в Александровском (Ставропольский край, Россия) (71 км)
Погода в Дивном (Ставропольский край, Россия) (74 км)
Погода в Изобильном (Ставропольский край, Россия) (90 км)
Погода в Городовиковске (Калмыкия, Россия) (105 км)
Погода в Арзгире (Ставропольский край, Россия) (106 км)
Погода в Невинномысске (Ставропольский край, Россия) (106 км)
Погода в Буденновске (Ставропольский край, Россия) (119 км)
Погода в Красногвардейском (Ставропольский край, Россия) (119 км)

Пояснения к столбцам:

Ветер - указаны скорость ветра в м/с - средняя за 10 мин, порывы в срок и между сроками (в фигурных скобках) и направление, откуда дует ветер: С - северный, СВ - северо-восточный, В - восточный, ЮВ - юго-восточный, Ю - южный, ЮЗ - юго-западный, З - западный, СЗ - северо-западный.
Видимость - горизонтальная дальность видимости в метрах или километрах. При видимости от 1 до 10 км при отсутствии осадков обычно наблюдается дымка, при ухудшении видимости до 1 км и менее - туман. В сухую погоду видимость может ухудшаться дымом, пылью или мглою.
Явления - указаны атмосферные явления, наблюдавшиеся в срок или в последний час перед сроком; фигурными скобками обозначены явления, наблюдавшиеся между сроками (за 1-3 часа до срока); квадратными скобками обозначены град или гололедные отложения с указанием их диаметра в мм.
Облачность - указаны через наклонную черту общая и нижняя облачность в баллах и высота нижней границы облаков в метрах; квадратными скобками обозначены формы облаков: Ci - перистые, Cs - перисто-слоистые, Cc - перисто-кучевые, Ac - высококучевые, As - высокослоистые, Sc - слоисто-кучевые, Ns - слоисто-дождевые, Cu - кучевые, Cb - кучево-дождевые. Подробнее классификацию облаков см. в Атласе облаков (PDF).
T - Температура воздуха - температура, измеренная на высоте 2 м над землей.
Td - Температура точки росы - температура, при понижении до которой содержащийся в воздухе водяной пар достигнет насыщения.
f - Относительная влажность воздуха - влажноcть воздуха, измеренная на высоте 2 м над землей.
Te - Эффективная температура - температура, которую ощущает одетый по сезону человек в тени. Характеристика душности погоды. При расчете учитывается влияние влажности воздуха и скорости ветра на теплоощущения человека.
Tes - Эффективная температура на солнце - температура, которую ощущает человек, с поправкой на солнечный нагрев. Характеристика знойности погоды. Зависит от высоты солнца над горизонтом, облачности и скорости ветра. Ночью, в пасмурную погоду, а также при ветре 12 м/с и более поправка равна нулю.
P - Атмосферное давление - приведенное к уровню моря атмосферное давление.
Po - Атмосферное давление - измеренное на уровне метеостанции атмосферное давление.
Tmin - Минимальная температура - минимум температуры воздуха на высоте 2 м над землей.
Tmax - Максимальная температура - максимум температуры воздуха на высоте 2 м над землей.
R - Количество осадков - Количество выпавших осадков за период времени, мм. При наведении курсора мыши на число - период времени, за который выпало указанное количество осадков.
R24 - Количество осадков - Количество выпавших осадков за 24 часа, мм.
S - Снежный покров - Высота снежного покрова, см. При наведении курсора мыши на число - состояние снежного покрова и степень покрытия местности в баллах.